Location: Gad�tanya
(48.0500°N, 20.8500°E)
Time: 11:55:28
(UTC+00:00)

Spot 4 - Pass Details

Date: 05 July 2020
Orbit: 705 x 722 km, 98.3° (Epoch: 15 August)

Event Time Altitude Azimuth Distance (km) Brightness Sun altitude
Exits shadow 21:20:01 30° 153° (SSE) 1,248 4.5 -17.0°
Maximum altitude 21:22:21 75° 73° (ENE) 737 3.8 -17.1°
Drops below altitude 10° 21:27:08 10° 349° (N) 2,188 7.7 -17.3°
Sets 21:29:24 0° 348° (NNW) 3,111 8.9 -17.5°
